When you browse on this site, cookies collect data to enhance your experience and personalize the content and advertising you see.
Visit our Privacy Policy to learn more. By continuing to use the site, you agree to this use of cookies and data.
  • In Portugal
  • List of Countries
  • For 7 days
  • Water Temperature
  • Weather Map
  • Weather Widgets
  • user-avatar
    Login

    Hourly Weather La Rioja

    Today, 23 September, Monday

    Time Temperature Precipitation Wind Pressure Humidity
    00:00 +17°C° 0 mm 2 mps 717 mmHg 38%
    01:00 +17°C° 0 mm 2 mps 716 mmHg 38%
    02:00 +16°C° 0 mm 2 mps 716 mmHg 40%
    03:00 +16°C° 0 mm 2 mps 716 mmHg 41%
    04:00 +14°C° 0 mm 3 mps 716 mmHg 43%
    05:00 +14°C° 0 mm 3 mps 715 mmHg 44%
    06:00 +16°C° 0 mm 3 mps 716 mmHg 41%
    07:00 +17°C° 0 mm 3 mps 716 mmHg 38%
    08:00 +18°C° 0 mm 4 mps 716 mmHg 35%
    09:00 +20°C° 0 mm 4 mps 716 mmHg 31%
    10:00 +22°C° 0 mm 4 mps 716 mmHg 28%
    11:00 +25°C° 0 mm 4 mps 716 mmHg 25%
    12:00 +26°C° 0 mm 4 mps 716 mmHg 24%
    13:00 +27°C° 0 mm 4 mps 715 mmHg 23%
    14:00 +28°C° 0 mm 4 mps 715 mmHg 21%
    15:00 +28°C° 0 mm 3 mps 715 mmHg 22%
    16:00 +28°C° 0 mm 3 mps 715 mmHg 22%
    17:00 +28°C° 0 mm 3 mps 715 mmHg 22%
    18:00 +27°C° 0 mm 3 mps 716 mmHg 25%
    19:00 +25°C° 0 mm 4 mps 717 mmHg 28%
    20:00 +22°C° 0 mm 4 mps 718 mmHg 32%
    21:00 +21°C° 0 mm 4 mps 719 mmHg 34%
    22:00 +20°C° 0 mm 3 mps 719 mmHg 37%
    23:00 +19°C° 0 mm 2 mps 720 mmHg 40%

    Tomorrow, 24 September, Tuesday

    Time Temperature Precipitation Wind Pressure Humidity
    00:00 +18°C° 0 mm 2 mps 720 mmHg 42%
    01:00 +18°C° 0 mm 2 mps 720 mmHg 44%
    02:00 +18°C° 0 mm 1 mps 720 mmHg 45%
    03:00 +16°C° 0 mm 1 mps 720 mmHg 47%
    04:00 +16°C° 0 mm 2 mps 720 mmHg 48%
    05:00 +15°C° 0 mm 2 mps 720 mmHg 50%
    06:00 +17°C° 0 mm 2 mps 720 mmHg 46%
    07:00 +19°C° 0 mm 2 mps 721 mmHg 41%
    08:00 +20°C° 0 mm 2 mps 722 mmHg 37%
    09:00 +23°C° 0 mm 2 mps 722 mmHg 34%
    10:00 +25°C° 0 mm 2 mps 722 mmHg 31%
    11:00 +26°C° 0 mm 3 mps 722 mmHg 27%
    12:00 +27°C° 0 mm 3 mps 721 mmHg 26%
    13:00 +28°C° 0 mm 3 mps 721 mmHg 25%
    14:00 +29°C° 0 mm 3 mps 720 mmHg 23%
    15:00 +29°C° 0 mm 3 mps 720 mmHg 23%
    16:00 +29°C° 0 mm 3 mps 719 mmHg 24%
    17:00 +29°C° 0 mm 3 mps 719 mmHg 24%
    18:00 +27°C° 0 mm 3 mps 719 mmHg 27%
    19:00 +25°C° 0 mm 2 mps 720 mmHg 30%
    20:00 +23°C° 0 mm 2 mps 720 mmHg 33%
    21:00 +23°C° 0 mm 1 mps 720 mmHg 34%
    22:00 +22°C° 0 mm 1 mps 721 mmHg 36%
    23:00 +21°C° 0 mm 1 mps 721 mmHg 37%

    Day after tomorrow, 25 September, Wednesday

    Time Temperature Precipitation Wind Pressure Humidity
    00:00 +21°C° 0 mm 1 mps 721 mmHg 39%
    01:00 +20°C° 0 mm 1 mps 721 mmHg 41%
    02:00 +19°C° 0 mm 1 mps 721 mmHg 43%
    03:00 +19°C° 0 mm 1 mps 720 mmHg 44%
    04:00 +19°C° 0 mm 1 mps 720 mmHg 45%
    05:00 +18°C° 0 mm 1 mps 720 mmHg 45%
    06:00 +20°C° 0 mm 1 mps 721 mmHg 41%
    07:00 +22°C° 0 mm 1 mps 721 mmHg 36%
    08:00 +24°C° 0 mm 1 mps 722 mmHg 31%
    09:00 +26°C° 0 mm 2 mps 721 mmHg 28%
    10:00 +28°C° 0 mm 2 mps 721 mmHg 25%
    11:00 +30°C° 0 mm 2 mps 721 mmHg 22%
    12:00 +31°C° 0 mm 3 mps 720 mmHg 20%
    13:00 +33°C° 0 mm 4 mps 719 mmHg 18%
    14:00 +35°C° 0 mm 4 mps 718 mmHg 16%
    15:00 +34°C° 0 mm 5 mps 717 mmHg 16%
    16:00 +34°C° 0 mm 5 mps 716 mmHg 16%
    17:00 +34°C° 0 mm 5 mps 715 mmHg 16%
    18:00 +30°C° 0 mm 5 mps 715 mmHg 20%
    19:00 +28°C° 0 mm 4 mps 716 mmHg 24%
    20:00 +26°C° 0 mm 3 mps 716 mmHg 28%
    21:00 +24°C° 0 mm 2 mps 716 mmHg 32%
    22:00 +23°C° 0 mm 2 mps 716 mmHg 35%
    23:00 +22°C° 0 mm 1 mps 716 mmHg 39%

    26 September, Thursday

    Time Temperature Precipitation Wind Pressure Humidity
    00:00 +21°C° 0 mm 1 mps 716 mmHg 41%
    01:00 +21°C° 0 mm 1 mps 716 mmHg 42%
    02:00 +20°C° 0 mm 1 mps 715 mmHg 44%
    03:00 +20°C° 0 mm 1 mps 715 mmHg 44%
    04:00 +19°C° 0 mm 1 mps 715 mmHg 43%
    05:00 +18°C° 0 mm 2 mps 715 mmHg 42%
    06:00 +20°C° 0 mm 2 mps 715 mmHg 37%
    07:00 +21°C° 0 mm 2 mps 716 mmHg 33%
    08:00 +24°C° 0 mm 3 mps 716 mmHg 28%
    09:00 +25°C° 0 mm 3 mps 716 mmHg 26%
    10:00 +27°C° 0 mm 3 mps 716 mmHg 23%
    11:00 +29°C° 0 mm 3 mps 716 mmHg 20%
    12:00 +30°C° 0 mm 3 mps 715 mmHg 19%
    13:00 +31°C° 0 mm 3 mps 715 mmHg 18%
    14:00 +33°C° 0 mm 3 mps 714 mmHg 17%
    15:00 +33°C° 0 mm 3 mps 713 mmHg 17%
    16:00 +34°C° 0 mm 3 mps 713 mmHg 17%
    17:00 +34°C° 0 mm 3 mps 713 mmHg 17%
    18:00 +31°C° 0 mm 3 mps 713 mmHg 21%
    19:00 +29°C° 0 mm 4 mps 713 mmHg 25%
    20:00 +27°C° 0 mm 4 mps 713 mmHg 29%
    21:00 +25°C° 0 mm 4 mps 713 mmHg 31%
    22:00 +24°C° 0 mm 3 mps 713 mmHg 33%
    23:00 +21°C° 0 mm 3 mps 712 mmHg 35%

    27 September, Friday

    Time Temperature Precipitation Wind Pressure Humidity
    00:00 +21°C° 0 mm 3 mps 712 mmHg 37%
    01:00 +20°C° 0 mm 3 mps 712 mmHg 39%
    02:00 +19°C° 0 mm 2 mps 711 mmHg 41%
    03:00 +19°C° 0 mm 3 mps 711 mmHg 43%
    04:00 +18°C° 0 mm 3 mps 711 mmHg 44%
    05:00 +18°C° 0 mm 4 mps 711 mmHg 46%
    06:00 +19°C° 0 mm 4 mps 711 mmHg 44%
    07:00 +19°C° 0 mm 4 mps 712 mmHg 42%
    08:00 +20°C° 0 mm 5 mps 712 mmHg 40%
    09:00 +22°C° 0 mm 4 mps 712 mmHg 36%
    10:00 +25°C° 0 mm 4 mps 712 mmHg 32%
    11:00 +27°C° 0 mm 4 mps 712 mmHg 27%
    12:00 +29°C° 0 mm 4 mps 712 mmHg 25%
    13:00 +30°C° 0 mm 3 mps 711 mmHg 23%
    14:00 +31°C° 0 mm 3 mps 711 mmHg 21%
    15:00 +31°C° 0 mm 3 mps 710 mmHg 21%
    16:00 +31°C° 0 mm 2 mps 710 mmHg 21%
    17:00 +31°C° 0 mm 2 mps 710 mmHg 21%
    18:00 +29°C° 0 mm 2 mps 710 mmHg 24%
    19:00 +27°C° 0 mm 2 mps 711 mmHg 27%
    20:00 +25°C° 0 mm 1 mps 711 mmHg 31%
    21:00 +24°C° 0 mm 1 mps 712 mmHg 32%
    22:00 +24°C° 0 mm 1 mps 712 mmHg 33%
    23:00 +23°C° 0 mm 1 mps 712 mmHg 35%

    28 September, Saturday

    Time Temperature Precipitation Wind Pressure Humidity
    00:00 +21°C° 0 mm 2 mps 712 mmHg 39%
    01:00 +21°C° 0 mm 2 mps 712 mmHg 43%
    02:00 +20°C° 0 mm 3 mps 712 mmHg 47%
    03:00 +19°C° 0 mm 3 mps 712 mmHg 49%
    04:00 +19°C° 0 mm 3 mps 712 mmHg 51%
    05:00 +19°C° 0 mm 3 mps 712 mmHg 53%
    06:00 +20°C° 0 mm 3 mps 713 mmHg 49%
    07:00 +22°C° 0 mm 3 mps 713 mmHg 45%
    08:00 +24°C° 0 mm 3 mps 714 mmHg 41%
    09:00 +26°C° 0 mm 3 mps 714 mmHg 38%
    10:00 +27°C° 0 mm 3 mps 714 mmHg 34%
    11:00 +29°C° 0 mm 4 mps 714 mmHg 31%
    12:00 +30°C° 0 mm 3 mps 713 mmHg 29%
    13:00 +31°C° 0 mm 3 mps 713 mmHg 27%
    14:00 +34°C° 0 mm 3 mps 712 mmHg 25%
    15:00 +34°C° 0 mm 3 mps 712 mmHg 24%
    16:00 +34°C° 0 mm 2 mps 711 mmHg 23%
    17:00 +34°C° 0 mm 2 mps 711 mmHg 23%
    18:00 +31°C° 0 mm 2 mps 711 mmHg 26%
    19:00 +28°C° 0 mm 2 mps 711 mmHg 30%
    20:00 +26°C° 0 mm 1 mps 712 mmHg 33%
    21:00 +26°C° 0 mm 1 mps 712 mmHg 34%
    22:00 +25°C° 0 mm 1 mps 712 mmHg 36%
    23:00 +25°C° 0 mm 1 mps 712 mmHg 37%
    Show more